Location: Newark
(47.5500°N, 8.6167°E)
Time: 01:02:54
(UTC+00:00)

FO-29 - Visible Passes

Search period start: 03 April 2020 00:00
Search period end: 13 April 2020 00:00
Orbit: 800 x 1321 km, 98.6° (Epoch: 02 April)

Date Brightness Start Highest point End Pass type
(mag) Time Alt. Az. Time Alt. Az. Time Alt. Az.
03 Apr 10.7 01:14:32 40° WNW 01:14:32 40° WNW 01:20:21 10° NNW visible
03 Apr 11.5 22:32:13 24° ENE 22:33:43 26° NE 22:39:34 10° N visible
04 Apr 10.1 00:18:42 76° NNW 00:18:42 76° NNW 00:25:33 10° NNW visible
04 Apr 11.5 02:05:11 20° WNW 02:05:11 20° WNW 02:09:19 10° NW visible
04 Apr 12.1 21:36:44 10° ENE 21:39:47 13° NE 21:42:47 10° NNE visible
04 Apr 10.6 23:22:52 48° ENE 23:23:11 48° ENE 23:30:16 10° N visible
05 Apr 10.6 01:09:20 43° WNW 01:09:20 43° WNW 01:15:24 10° NNW visible
05 Apr 11.5 22:27:03 22° ENE 22:28:50 24° NE 22:34:29 10° N visible
06 Apr 10.0 00:13:31 81° N 00:13:31 81° N 00:20:33 10° NNW visible
06 Apr 11.4 01:59:59 21° WNW 01:59:59 21° WNW 02:04:27 10° NW visible
06 Apr 12.2 21:32:24 10° ENE 21:34:56 12° NE 21:37:24 10° NNE visible
06 Apr 10.7 23:17:41 44° ENE 23:18:18 45° ENE 23:25:13 10° N visible
07 Apr 10.5 01:04:10 46° WNW 01:04:10 46° WNW 01:10:26 10° NNW visible
07 Apr 11.6 22:21:52 20° ENE 22:23:58 23° NE 22:29:21 10° N visible
08 Apr 10.0 00:08:20 84° NE 00:08:20 84° NE 00:15:33 10° NNW visible
08 Apr 11.3 01:54:49 23° WNW 01:54:49 23° WNW 01:59:33 10° NW visible
08 Apr 12.2 21:28:15 10° ENE 21:30:04 11° NE 21:31:51 10° NNE visible
08 Apr 10.7 23:12:30 41° E 23:13:24 43° ENE 23:20:10 10° N visible
09 Apr 10.4 00:58:59 49° W 00:58:59 49° W 01:05:27 10° NNW visible
09 Apr 11.6 22:16:41 18° ENE 22:19:05 22° NE 22:24:13 10° N visible
10 Apr 9.9 00:03:10 81° E 00:03:12 81° ENE 00:10:31 10° NNW visible
10 Apr 11.2 01:49:38 24° W 01:49:38 24° W 01:54:40 10° NW visible
10 Apr 12.2 21:24:44 10° NE 21:25:12 10° NE 21:25:40 10° NE visible
10 Apr 10.8 23:07:20 38° E 23:08:30 40° ENE 23:15:05 10° N visible
11 Apr 10.3 00:53:49 52° W 00:53:49 52° W 01:00:27 10° NNW visible
11 Apr 11.7 22:11:31 17° E 22:14:12 20° NE 22:19:03 10° N visible
11 Apr 9.9 23:57:59 76° E 23:58:17 77° ENE 00:05:28 10° NNW visible
12 Apr 11.1 01:44:28 25° W 01:44:28 25° W 01:49:44 10° NW visible
12 Apr 10.9 23:02:10 35° E 23:03:36 38° ENE 23:09:59 10° N visible
